Weather Roundup
Issued by NWS

Home | Current Version | Previous Version | Graphics & Text | Print | Product List | Glossary Off
Versions: 1 2 3 4 5 6 7 8 9 10 11 12 13 14 15 16 17 18 19 20 21 22 23 24 25 26 27 28 29 30 31 32 33 34 35 36 37 38 39 40 41 42 43 44 45 46 47 48 49 50

000
NZUS93 KARX 241059
HRRWXR

CURRENT HOURLY OBSERVATIONS ACROSS
MUCH OF THE UPPER MISSISSIPPI VALLEY
NATIONAL WEATHER SERVICE LA CROSSE WI
600 AM CDT SUN SEP 24 2017


...SOUTHEAST MINNESOTA...


CITY           SKY/WX    TMP DP  RH WIND       PRES   REMARKS
ROCHESTER      CLEAR     67  62  84 S8        30.00S
ROCHESTER/MAYO FAIR      70  62  74 SE7       29.99S
WINONA         CLEAR     70  63  78 SE3       30.00R
AUSTIN         PTCLDY    68  61  77 S3        29.99R
ALBERT LEA     CLEAR     70  64  83 S6        29.98R
DODGE CENTER   PTCLDY    66  61  82 SE6       29.99R
PRESTON        CLEAR     68  60  77 S7        30.02R
OWATONNA       CLEAR     70  63  78 SE9       29.97R
FARIBAULT      CLEAR     72  63  73 S8        29.96R
$$

...ELSEWHERE IN MINNESOTA...


CITY           SKY/WX    TMP DP  RH WIND       PRES   REMARKS
MINNEAPOLIS    CLEAR     73  64  73 S3        29.94S
INTNL FALLS    CLOUDY    58  57  97 E6        29.94F
DULUTH         PTCLDY    64  64 100 SE12      29.96S
RED WING       CLEAR     72  61  68 E5        29.95S
REDWOOD FALLS  FOG       60  58  92 SE7       29.90S VSB 3/4
MANKATO        CLEAR     68  63  84 S5        29.95R
WORTHINGTON    PTCLDY    66  63  90 S8        29.92F
FAIRMONT       CLEAR     65  63  93 S6        29.94S
$$

...SOUTHWEST WISCONSIN...


CITY           SKY/WX    TMP DP  RH WIND       PRES   REMARKS
LA CROSSE      CLEAR     71  66  84 S6        30.01R
PRAIRIE DU CHI CLEAR     65  62  90 SE3       30.02S
BOSCOBEL       FOG       63  61  93 CALM      30.04S VSB 1/2
LONE ROCK      NOT AVBL
PLATTEVILLE    CLEAR     67  64  90 E6        30.06R
FORT MC COY    CLEAR     58  58  99 CALM      30.03F
MAUSTON-NEW LI SUNNY     66  63  90 SE6       30.04S
VIROQUA        FAIR      67  64  91 SE7       30.05S
WIS DELLS      CLEAR     68  62  80 S3        30.06S
$$

...ELSEWHERE IN WISCONSIN...


CITY           SKY/WX    TMP DP  RH WIND       PRES   REMARKS
MILWAUKEE      CLEAR     70  66  87 S5        30.07S
MADISON        CLEAR     65  64  97 CALM      30.06R
GREEN BAY      CLEAR     66  65  96 CALM      30.06F
EAU CLAIRE     CLEAR     67  62  84 CALM      29.99R
BLACK RVR FLS  FOG       56  56 100 CALM      30.02S VSB 1/2
MEDFORD        CLEAR     65  61  87 SE6       30.05S
WAUSAU         CLEAR     63  61  93 SE7       30.05S
WIS RAPIDS     CLEAR     67  64  90 S5        30.07R
MARSHFIELD     CLEAR     64  60  87 S5        30.05S
RICE LAKE      CLEAR     67  64  89 SE7       30.00F
$$

...NORTHEAST IOWA...


CITY           SKY/WX    TMP DP  RH WIND       PRES   REMARKS
WATERLOO       CLEAR     68  61  78 SE8       29.99S
DUBUQUE        CLEAR     67  62  84 S3        30.06R
DECORAH        CLEAR     68  63  83 SE6       30.01S
MASON CITY     PTCLDY    66  61  84 S7        29.99S
CHARLES CITY   CLEAR     68  63  83 SE6       30.00S
OELWEIN        CLEAR     66  63  88 SE7       30.02S
$$

...ELSEWHERE IN IOWA...


CITY           SKY/WX    TMP DP  RH WIND       PRES   REMARKS
DES MOINES     CLEAR     72  63  73 SE6       29.96S
IOWA CITY        N/A     66  62  87 CALM      30.03S
FORT DODGE     CLEAR     70  65  84 SE5       29.96S
MARSHALLTOWN   CLEAR     65  62  90 SE8       29.98S
CEDAR RAPIDS   CLEAR     63  61  93 E5        30.01S
$$

...NORTHERN ILLINOIS...


CITY           SKY/WX    TMP DP  RH WIND       PRES   REMARKS
CHICAGO-OHARE  CLEAR     71  63  75 S3        30.07S
CHICAGO-MIDWAY CLEAR     74  65  73 S3        30.08R
MOLINE         CLEAR     67  60  78 CALM      30.03S
ROCKFORD       CLEAR     66  63  90 SE5       30.08R
PEORIA         CLEAR     66  63  90 CALM      30.06R
$$

NOTE: "FAIR" INDICATES FEW OR NO CLOUDS BELOW 12,000 FEET WITH NO
SIGNIFICANT WEATHER AND/OR OBSTRUCTIONS TO VISIBILITY. WIND
SPEEDS ARE IN MILES-PER-HOUR.




USA.gov is the U.S. government's official web portal to all federal, state and local government web resources and services.